SCP
0 0 0 0 0 0 0 0 0 0 0 0 0 0 0 0 0 0 0 0 0 0 0 0 0 0 0 0 0 0 0 0 0 0 0 0 0 0 0 0 0 0 0 0
0 0 0 0 0 0 0 0 0 0 0 0 0 0 0 0 0 0 0 0 0 0 0 0 0 0 0 0 0 0 0 0 0 0 0 0 0 0 0 0 0 0 0 0
0 0 0 0 0 0 0 0 0 0 0 0 0 0 0 0 0 0 0 0 0 0 0 0 0 0 0 0 0 0 0 0 0 0 0 0 0 0 0 0 0 0 0 0
0 0 0 0 0 0 0 0 0 0 0 0 0 0 0 0 0 0 0 0 0 0 0 0 0 0 0 0 0 0 0 0 0 0 0 0 0 0 0 0 0 0 0 0
0 0 0 0 0 0 0 0 0 0 0 0 0 0 0 0 0 0 0 0 0 0 0 0 0 0 0 0 0 0 0 0 1 0 0 0 0 0 0 0 0 0 0 0
0 0 0 0 0 0 0 0 0 0 0 0 0 0 0 0 0 0 0 0 0 0 0 0 0 0 0 0 0 0 0 1 1 1 1 0 0 0 0 0 0 0 0 0
0 0 0 0 0 0 0 0 0 0 0 0 0 0 0 0 0 0 0 0 0 0 0 0 0 0 0 0 0 1 1 1 1 1 1 1 0 0 0 0 0 0 0 0
0 0 0 0 0 0 0 0 0 0 0 0 0 0 0 0 0 0 0 0 0 0 0 0 0 0 1 1 1 1 1 1 1 1 1 1 1 0 0 0 0 0 0 0
0 0 0 0 0 0 0 0 0 0 0 0 0 0 0 0 0 0 0 0 0 0 0 0 1 1 1 1 1 1 1 1 1 1 1 1 1 1 0 0 0 0 0 0
0 0 0 0 0 0 0 0 0 0 0 0 0 0 0 0 0 0 0 0 0 0 0 1 1 1 1 1 1 1 1 1 1 1 1 1 1 1 1 1 0 0 0 0
0 0 0 0 0 0 0 0 0 0 0 0 0 0 0 0 0 0 0 0 0 1 1 1 1 1 1 1 1 1 1 1 1 1 1 1 1 1 1 1 0 0 0 0
0 0 0 0 0 0 0 0 0 0 0 0 0 0 0 0 0 0 0 0 1 1 1 1 1 1 1 1 1 1 1 1 1 1 1 1 1 1 1 0 0 0 0 0
0 0 0 0 0 0 0 0 0 -0 -0 -0 0 0 0 0 0 0 0 0 1 1 1 1 1 1 1 1 1 1 1 1 1 1 1 1 1 1 1 1 0 0 0 0
-0 0 0 0 0 0 0 0 0 -0 -0 -0 0 0 0 0 0 0 0 0 1 1 1 1 1 1 1 1 1 1 1 1 1 1 1 1 1 1 1 1 1 0 0 0
-0 0 0 0 0 0 0 0 0 0 0 0 0 0 0 0 0 0 0 0 1 1 1 1 1 1 1 1 1 1 1 1 1 1 1 1 1 1 1 1 1 1 0 0
0 0 0 0 0 0 0 0 0 0 0 0 0 0 0 0 0 0 0 0 1 1 1 1 1 1 1 1 1 1 1 1 1 1 1 1 1 1 1 1 1 1 1 1
0 0 0 0 0 0 0 0 0 0 0 0 0 0 0 0 0 0 0 0 1 1 1 1 1 1 1 1 1 1 1 1 1 1 1 1 1 1 1 1 1 1 1 1
0 0 0 0 0 0 0 0 0 0 0 0 0 0 0 0 0 0 0 0 0 1 1 1 1 1 1 1 1 1 1 1 1 1 1 1 1 1 1 1 1 1 1 1
0 0 0 0 0 0 0 0 0 0 0 0 0 0 0 0 0 0 0 0 0 1 1 1 1 1 1 1 1 1 1 1 1 1 1 1 1 1 1 1 1 1 1 1
0 0 0 0 0 0 0 0 0 0 0 0 0 0 0 0 0 0 0 0 0 0 1 1 1 1 1 1 1 1 1 1 1 1 1 1 1 1 1 1 1 1 1 1
0 0 0 0 0 0 0 0 0 0 0 0 0 0 0 0 0 0 1 1 0 0 1 1 1 1 1 1 1 1 1 1 1 1 1 1 1 1 1 1 1 1 1 1
0 0 0 0 0 0 0 0 0 0 0 0 0 0 0 0 0 0 1 1 1 1 1 1 0 0 1 1 1 1 1 1 1 1 1 1 1 1 1 1 1 1 1 1
0 0 0 0 0 0 0 0 0 0 0 0 0 0 0 0 0 0 1 1 1 1 1 1 0 1 1 1 1 1 1 1 0 1 1 1 1 1 1 1 1 1 1 1
0 0 0 0 0 0 0 0 0 0 0 0 0 0 0 0 0 0 1 1 1 1 1 1 1 1 1 1 1 1 1 0 0 0 0 1 1 1 1 1 1 1 0 0
0 0 0 0 0 0 0 0 0 0 0 0 0 0 0 0 0 0 0 0 1 1 1 0 0 0 0 0 0 0 0 0 0 0 0 0 0 0 1 1 0 0 0 0
0 0 0 0 0 0 0 0 0 0 0 0 0 0 0 0 0 0 0 0 1 1 1 0 0 0 0 0 0 0 0 0 0 0 0 0 0 0 0 0 0 0 0 0
Wind_Speed
7 9 8 5 6 7 6 6 4 1 1 3 3 2 3 6 6 6 7 7 7 8 9 9 9 8 8 8 7 7 6 5 4 3 3 3 2 2 1 1 1 1 1 0
9 10 7 5 6 7 8 7 4 2 0 4 3 3 2 5 6 6 6 7 8 7 8 9 9 9 9 9 8 8 7 6 6 4 3 2 2 2 1 1 1 1 1 1
11 4 3 6 7 9 9 8 5 3 3 5 5 5 5 5 6 6 6 6 7 7 8 9 9 9 9 9 9 7 7 7 6 5 4 3 3 3 2 2 1 1 1 1
9 5 5 8 9 10 8 5 5 5 7 4 5 4 4 4 6 6 7 7 7 7 8 8 9 9 9 9 8 8 8 7 7 6 5 5 3 3 2 2 1 1 1 1
8 7 8 9 7 8 4 3 5 7 8 7 5 7 2 4 4 5 6 6 7 8 8 8 8 8 8 8 8 8 8 7 7 6 6 6 4 3 2 2 1 2 1 2
8 5 7 6 4 5 4 5 6 8 9 9 6 7 2 2 1 2 4 5 6 6 7 7 7 7 7 7 7 8 9 8 8 7 6 6 4 3 2 2 1 2 2 2
10 9 7 7 8 8 9 9 7 8 8 6 3 6 2 1 1 1 2 3 5 6 7 7 8 8 8 8 8 8 8 8 8 8 7 6 6 5 4 4 3 3 2 2
11 10 10 8 9 7 9 11 8 7 7 5 6 6 1 2 1 0 1 3 4 6 6 7 8 8 8 8 8 8 8 8 8 8 7 6 6 5 4 4 4 3 2 2
8 8 7 6 6 9 9 9 9 10 10 9 5 3 3 3 2 1 2 3 4 4 5 6 7 7 8 8 8 7 7 7 8 8 7 6 6 5 4 4 4 3 2 2
7 7 7 6 7 5 8 7 7 9 8 10 8 7 4 2 2 2 2 2 2 3 4 5 6 6 6 7 7 7 6 6 7 7 7 5 6 5 5 4 3 3 3 3
10 10 8 9 9 9 9 9 8 8 9 11 10 4 2 1 1 2 1 1 1 2 3 4 4 5 6 6 6 6 6 6 6 6 6 5 5 4 4 4 4 4 4 3
8 9 9 9 5 5 9 10 11 10 9 10 11 4 4 1 0 1 1 0 0 1 2 4 5 5 5 5 5 6 6 6 6 6 6 5 5 4 4 4 3 3 4 4
6 9 11 11 11 8 8 9 10 11 10 10 11 4 4 2 0 0 1 1 1 2 2 4 4 4 4 4 4 4 4 5 5 5 6 5 5 5 4 3 3 4 4 5
7 10 11 12 7 6 9 10 10 12 11 11 11 8 4 3 2 1 1 1 1 2 2 3 3 3 3 3 3 3 3 3 4 4 5 5 5 4 4 3 4 4 4 5
7 10 10 11 9 8 9 9 10 12 12 13 10 8 5 2 2 1 1 1 1 2 2 2 3 3 3 3 3 3 3 3 4 4 4 4 4 3 3 4 4 5 5 5
6 9 10 11 11 11 11 11 10 11 11 10 9 7 2 1 1 1 2 2 2 2 2 2 3 3 3 3 3 3 3 3 4 4 4 3 3 4 3 4 4 5 5 5
6 7 10 11 11 11 14 11 11 10 9 9 9 5 1 2 2 2 2 2 1 1 2 2 2 2 2 3 2 3 2 2 3 3 3 4 4 4 4 4 4 4 4 4
7 8 8 9 9 15 6 3 6 8 8 7 5 2 2 1 1 2 2 1 1 1 1 1 2 2 2 3 3 3 3 3 3 3 3 3 3 3 3 4 4 4 3 4
7 7 8 9 12 11 6 3 5 7 7 4 4 3 2 1 3 2 2 2 2 2 1 1 1 1 1 2 3 3 3 3 3 3 3 4 4 3 4 4 4 4 3 4
6 7 9 9 12 11 3 2 2 6 7 2 3 3 3 4 5 1 2 1 1 1 1 0 0 0 1 2 2 3 3 3 3 3 3 3 4 4 5 5 5 4 4 4
7 8 10 11 11 6 2 2 4 8 1 2 2 2 3 3 3 3 2 2 2 1 1 0 0 0 1 1 2 2 2 2 2 3 3 4 4 5 5 4 4 4 4 4
7 7 8 9 11 5 4 1 3 3 4 2 1 0 0 1 1 1 1 2 1 1 1 0 0 0 1 1 2 2 2 1 2 3 3 3 4 5 3 4 4 4 5 5
5 4 4 4 2 3 2 2 3 2 1 1 1 0 0 1 1 1 1 1 1 1 1 0 0 1 1 1 2 2 1 1 2 3 3 3 4 4 4 4 4 4 5 5
3 2 4 4 2 0 0 0 1 2 2 1 0 1 1 1 1 1 1 0 1 0 0 1 1 1 1 0 1 1 1 1 2 3 3 3 3 4 3 3 3 3 4 4
2 3 4 6 3 2 2 1 1 1 1 0 1 1 1 1 1 1 1 0 0 0 1 1 1 0 0 1 1 2 2 2 3 3 3 3 4 3 3 3 3 3 2 3
4 4 6 4 2 3 2 2 1 1 1 1 1 1 1 1 1 1 1 1 0 1 1 1 1 1 1 1 2 2 2 2 3 3 3 3 3 2 3 2 2 1 2 2
Wind_Direction
204 233 235 241 253 275 281 272 270 324 74 260 256 253 165 177 194 188 184 186 189 192 182 184 186 185 181 180 182 183 182 173 182 183 192 184 182 194 179 178 140 234 284 304
219 229 244 265 253 248 247 252 246 209 358 280 277 267 182 183 204 202 197 195 195 190 182 185 189 189 188 185 186 186 187 182 189 178 189 196 200 199 169 191 133 243 273 282
234 241 226 240 232 232 235 252 257 262 257 237 260 220 185 175 196 201 205 205 200 197 191 187 191 193 192 190 190 189 188 186 190 187 187 185 188 209 192 194 176 198 255 274
237 221 227 234 233 241 234 240 254 243 250 245 263 265 163 174 190 201 203 204 203 197 195 190 191 194 194 190 187 186 184 185 185 188 193 198 204 206 201 223 177 204 222 266
224 217 226 236 236 244 258 240 237 244 253 259 238 266 162 171 201 201 200 202 201 195 194 191 191 190 190 184 183 182 180 182 184 190 191 205 215 208 204 217 187 253 224 248
239 220 239 244 233 223 200 204 215 232 243 246 247 262 248 151 257 226 195 200 195 190 189 187 182 180 180 176 180 180 178 182 185 190 194 204 212 220 227 243 246 245 238 243
216 212 208 222 215 195 217 230 226 224 226 239 211 250 270 26 1 295 216 190 184 184 186 181 179 179 180 180 184 185 183 187 190 193 197 201 208 211 216 235 228 253 267 260
216 208 199 210 233 223 221 242 254 263 260 238 194 240 196 97 75 345 204 175 174 181 183 180 180 182 183 184 185 186 185 190 194 195 198 202 210 222 225 228 248 244 262 280
234 219 181 204 227 243 224 238 264 270 269 268 243 226 211 186 195 180 171 172 178 183 182 179 176 180 180 180 182 183 184 190 196 197 195 201 211 226 237 235 239 246 256 259
250 242 194 184 205 212 260 250 244 256 262 264 251 243 242 224 237 204 188 187 171 178 177 169 169 169 171 171 172 176 178 190 197 199 202 199 209 216 228 240 244 256 259 269
244 242 211 202 223 220 205 223 244 258 266 270 270 260 68 225 241 245 226 231 187 173 161 151 152 155 158 160 165 173 173 187 196 197 195 205 206 215 223 230 237 244 254 256
230 247 241 224 212 265 247 241 238 249 250 259 274 275 97 137 254 312 317 96 93 140 148 143 139 140 148 156 163 171 179 189 196 195 192 199 201 206 216 226 236 245 254 256
214 241 236 220 201 200 228 236 246 254 254 254 262 253 134 151 191 91 52 109 132 135 140 135 130 138 145 153 159 168 181 193 193 193 197 196 199 196 207 218 234 248 254 261
246 242 248 255 255 227 223 227 237 251 255 258 259 264 221 212 230 203 149 150 156 142 144 140 134 136 147 160 165 176 183 189 192 197 200 196 199 199 206 221 234 245 253 255
242 243 247 260 264 257 250 246 238 244 263 273 276 265 254 242 243 230 182 163 162 171 170 162 152 147 163 174 178 182 184 185 189 193 196 194 191 196 210 219 230 236 245 252
241 250 247 248 247 248 248 245 245 248 258 264 264 266 307 338 242 226 212 209 217 216 201 190 184 177 187 191 194 189 187 182 179 186 193 191 191 193 209 221 230 234 242 253
234 239 246 246 241 245 243 244 244 246 253 256 261 268 206 226 242 258 247 228 249 242 217 210 208 204 203 207 205 189 179 174 177 190 199 193 197 203 216 228 232 237 237 244
238 242 245 248 239 242 251 254 250 254 257 260 262 238 233 260 257 268 274 298 299 270 229 221 225 215 202 186 181 173 165 170 182 194 206 213 215 214 227 237 238 248 254 251
235 233 244 245 240 241 217 204 242 246 251 252 238 220 208 221 223 176 75 357 326 324 295 265 264 223 179 173 164 162 164 175 193 206 216 223 232 233 236 240 242 247 256 257
200 221 241 241 251 252 237 140 249 248 232 197 227 223 211 227 246 109 52 339 341 354 15 308 277 126 160 166 168 171 177 191 210 225 233 234 236 241 244 248 250 251 251 251
203 214 233 242 248 250 48 74 221 236 278 83 216 225 226 256 337 27 17 31 20 12 357 316 207 176 141 164 176 190 200 223 236 246 246 246 241 241 240 246 249 251 253 252
237 229 228 241 246 234 70 181 261 356 30 18 331 268 281 21 13 11 21 29 25 34 59 71 176 102 105 157 183 197 213 241 252 253 252 251 251 251 241 239 244 248 248 241
249 282 275 268 291 36 34 347 2 350 342 342 316 356 255 260 289 350 2 21 50 54 45 322 198 126 108 153 200 219 235 246 249 252 255 253 253 251 248 241 241 243 242 250
199 282 271 259 225 352 68 25 357 326 310 315 311 252 257 269 282 284 318 15 61 62 346 271 220 142 109 189 247 269 263 261 254 255 260 262 258 256 257 260 257 262 265 270
280 230 245 244 242 238 213 284 320 353 331 237 253 267 286 287 278 272 260 253 306 308 308 290 277 242 240 293 286 286 289 271 264 265 274 275 274 277 267 271 291 277 289 293
244 250 252 255 247 265 247 249 294 314 310 302 298 298 313 291 285 286 288 317 309 305 315 308 304 300 307 301 289 298 293 272 266 263 268 275 275 275 271 265 272 5 271 259